CZ-6A DEB, 55530

Orbit data source: Space-Track

CZ-6A DEB, 55530 is space debris in SSO originally from a launch on Fri, 11 Nov 2022 UTC launched from the Taiyaun Space Center, China (TSC). Debris objects in space refer to the collection of defunct objects orbiting the Earth. Examples of debris include non-operational satellites, rocket bodies, and fragments generated from explosions, collisions, or faulty payload assembly.

Loading next visibility...
Identifier
55530, 2022-151YC
Orbit
SSO
Country
Flag of CNCN / PRC
Related business
Manufacturer
SAST
Mission
Spacecraft
Bus & Motor
Unknown
Mass
Unknown
Launch date (UTC)
2022-11-11 (3 years ago)
Launch vehicle
Unknown
Launch site
Taiyaun Space Center, China (TSC)
Object type
Payload
Rocket body
Debris
Shape & HBR
Unknown shape, 0.1 m
Radar Cross Section
Small (<0.1 m²)

Expand to show TLE details & history
Last TLE update: 16 hours ago

TLE from 16 hours ago
0 CZ-6A DEB
1 55530U 22151YC  25349.65045710  .00018421  00000-0  17788-2 0  9999
2 55530  98.6161  63.7959 0058871  41.2799 319.2845 14.91589643159536
Epoch: 2025-12-15T15:36Z
TLE epoch observation values (Epoch: 2025-12-15T15:36:39.493Z)
Latitude
-0.00006°
Longitude
105.08538°
Altitude
564.984 km
Speed
7.596 km/s
True Right ascension
04h 15m 11s
True Declination
0° 00' 00"
Sunlit
Object was in full shadow at epoch
Visualization orbit readout
Latitude
Unknown
Longitude
Unknown
Altitude
Unknown
Speed
Unknown
Apparent Right ascension
Unknown
Apparent Declination
Unknown
Sunlit
N/A
Visualization observer readout
Local Sidereal Time
06:14:43
Azimuth
Unknown
Elevation
Unknown
Doppler factor
Unknown
Orbital elements
Apogee altitude
631.06 km
Perigee altitude
549.015 km
Semi-major axis
6,968.174 km
Eccentricity
0.00589
Inclination
98.6161°
RAAN
63.7959°
Arg. of periapsis
41.2799°
True anomaly
318.84198°
Mean anomaly
319.2845°
Eccentric anomaly
319.06349°
Mean motion
3.73134 °/min
Orbital period
96.48 mins
BSTAR
0.0017788
Loading maneuver chart data...
Computing Atmospheric mass density...
Loading historical data...
Loading historical data...
Loading historical data...
Loading historical data...
Loading historical data...
Loading historical data...
Loading historical data...

Documentation

Showing up to 5 results
|